Location: Bohou?ovice I
(49.9745°N, 15.1828°E)
Time: 14:15:22
(UTC+00:00)

Daily predictions for brighter satellites

Satellite Brightness Start Highest point End
(mag) Time Altitude Azimuth Time Altitude Azimuth Time Altitude Azimuth
NOSS 3-1 (A) 4.3 15:22:51 10° NW 15:30:15 81° SW 15:38:56 10° SE
NOSS 2-2 (E) 4.3 15:28:51 10° NW 15:33:52 72° NE 15:40:54 10° SE
NOSS 2-2 (D) 4.3 15:29:08 10° NW 15:33:57 62° NE 15:40:40 10° SE
Cosmos 1500 4.2 15:31:31 10° NNE 15:34:37 24° ENE 15:37:41 10° SE
Cosmos 1500 Rocket 3.6 15:30:53 10° N 15:35:19 63° ENE 15:39:40 10° SSE
Cosmos 2221 2.6 15:35:48 10° S 15:40:05 83° W 15:44:26 10° N
Sich 1 3.6 15:36:11 10° N 15:40:08 34° ENE 15:44:05 10° SE
CZ-4B R/B 4.2 15:36:19 10° ESE 15:40:25 23° ENE 15:44:29 10° N
SL-08 R/B 3.3 15:35:45 10° NNE 15:40:27 64° ESE 15:45:02 10° S
Cosmos 1782 4.0 15:38:08 10° SE 15:41:22 24° E 15:44:37 10° NE
Envisat 4.5 15:37:13 10° S 15:42:02 42° W 15:46:52 10° NNW
USA 307 3.3 15:37:54 10° WNW 15:42:02 48° N 15:46:11 10° ENE
Cosmos 1464 Rocket 4.2 15:36:16 10° S 15:42:39 86° W 15:49:04 10° N
Cosmos 2360 4.2 15:37:44 10° NNW 15:43:31 83° ENE 15:49:15 10° SSE
Nadezhda 4 Rocket 4.1 15:37:47 10° N 15:44:10 89° E 15:50:31 10° S
CZ-2D R/B 4.4 15:41:14 10° ESE 15:44:13 22° ENE 15:47:12 10° NNE
NOAA 6 4.3 15:39:36 10° SE 15:44:30 48° ENE 15:49:26 10° N
SL-24 R/B - RUBIN 2 3.5 15:41:04 10° NW 15:45:40 66° NE 15:49:59 10° SE
Cosmos 1805 Rocket 3.7 15:43:09 10° N 15:47:23 50° ENE 15:51:36 10° SSE
Cosmos 1340 Rocket 3.2 15:46:01 10° NNW 15:50:05 72° W 15:54:09 10° S
Meteor 1-20 Rocket 4.3 15:44:17 10° N 15:50:09 79° ENE 15:56:00 10° SSE
Cosmos 2360 Rocket 3.8 15:49:02 10° N 15:52:27 16° NNE 15:55:33 11° ENE
Cosmos 858 Rocket 4.5 15:48:31 10° NNW 15:53:51 75° ENE 15:59:06 10° SSE
Cosmos 1842 Rocket 3.9 15:50:08 10° SSW 15:54:36 70° WNW 15:59:06 10° N
CZ-4C R/B 3.6 15:50:56 10° N 15:54:45 67° WNW 15:58:22 10° SSW
Cosmos 540 Rocket 3.7 15:50:47 10° S 15:55:41 49° ESE 16:00:37 10° NNE
ERBS 3.6 15:53:05 10° WNW 15:55:51 26° NNW 15:58:19 12° NE
Lacrosse 5 rocket 1.5 15:55:51 10° NW 15:59:35 46° NNE 16:03:30 10° E
ATLAS CENTAUR R/B 3.5 15:57:46 10° WNW 16:00:53 19° NNW 16:04:09 10° NNE
Cosmos 1428 Rocket 4.4 15:55:02 10° N 16:01:08 65° ENE 16:07:16 10° SSE
Cosmos 1092 Rocket 4.0 15:55:54 10° N 16:02:18 75° E 16:08:36 10° SSE
Cosmos 1666 3.5 16:00:32 10° N 16:03:46 27° ENE 16:06:59 10° SE
USA 308 3.3 16:00:35 10° WNW 16:04:43 48° N 16:08:06 15° ENE
COSMOS 2455 3.1 16:02:17 10° S 16:08:04 51° ESE 16:13:31 12° NE
Spot 1 4.4 16:06:05 10° NNE 16:10:50 86° WNW 16:15:49 10° SSW
Cosmos 1697 Rocket 3.4 16:08:44 10° NW 16:14:15 57° WSW 16:19:43 10° S
Cosmos 2322 Rocket 3.2 16:09:40 10° NNW 16:14:26 26° NE 16:18:22 13° E
CZ-4C R/B 2.9 16:09:12 10° NW 16:16:14 77° NE 16:24:34 10° SE
PSLV R/B 3.7 16:15:40 10° SSE 16:19:16 54° ENE 16:22:57 10° N
Cosmos 468 Rocket 4.3 16:14:11 10° SSW 16:19:20 70° WNW 16:24:34 10° NNE
Cosmos 1980 Rocket 2.2 16:13:53 10° NNW 16:19:36 88° ENE 16:25:15 10° SSE
Meteor 2-21 4.4 16:14:27 10° N 16:20:35 79° E 16:26:38 10° SSE
Cosmos 921 Rocket 4.5 16:18:09 10° SE 16:20:53 17° E 16:21:05 17° E
COSMO-SKYMED 1 3.6 16:22:41 18° NE 16:24:42 25° E 16:28:19 10° SSE
Cosmos 1627 Rocket 4.5 16:19:01 10° N 16:25:13 88° W 16:31:21 10° S
ATLAS CENTAUR R/B 2.8 16:16:15 10° SW 16:25:56 82° SE 16:28:49 21° ENE
Cosmos 2369 4.1 16:20:38 10° NNW 16:26:20 69° WSW 16:32:00 10° SSE
Cosmos 1933 3.6 16:24:17 10° SSW 16:28:19 72° WNW 16:32:22 10° N
Cosmos 1633 Rocket 3.2 16:24:48 10° N 16:29:04 49° ENE 16:33:20 10° SSE
Cosmos 2279 Rocket 4.1 16:24:11 10° SSE 16:30:08 51° E 16:36:06 10° NNE
USA 305 3.1 16:26:09 10° WNW 16:30:20 53° N 16:32:39 24° E
CZ-4B R/B 4.4 16:27:13 10° SSW 16:30:56 38° W 16:34:31 10° NNW
Cosmos 1812 2.9 16:28:11 10° S 16:31:54 48° E 16:34:50 15° NNE
CORIOLIS 4.3 16:26:31 10° SSE 16:31:56 82° WSW 16:37:25 10° NNW
Cosmos 2266 Rocket 4.5 16:26:08 10° N 16:32:02 38° ENE 16:37:57 10° SE
Cosmos 1818 3.6 16:27:10 10° NW 16:32:39 64° NE 16:38:04 10° SE
SL-16 R/B 2.6 16:28:32 10° NNW 16:33:53 40° NE 16:39:03 11° ESE
Meteor 1-5 Rocket 4.3 16:27:54 10° N 16:33:54 65° ENE 16:39:45 10° SSE
YAOGAN 1 4.0 16:36:55 20° NE 16:36:55 20° NE 16:39:05 10° NNE
AQUARIUS 4.4 16:32:02 10° S 16:36:29 73° WSW 16:41:01 10° NNW
USA 267 3.3 16:32:04 19° ENE 16:37:05 78° SE 16:43:38 10° SW
Cosmos 1151 Rocket 3.1 16:32:55 10° S 16:37:07 52° E 16:40:57 13° NNE
Cosmos 2082 Rocket 2.2 16:32:48 10° SSW 16:38:26 71° ESE 16:43:01 16° NE
SMAP 3.8 16:36:47 10° S 16:41:22 57° W 16:45:59 10° NNW
Meteor 1-14 Rocket 4.3 16:37:33 10° N 16:43:25 82° ENE 16:49:22 10° SSE
ARGOS 3.2 16:42:34 10° SE 16:47:51 57° ENE 16:53:09 10° N
MOS 1-B 4.3 16:42:12 10° SSE 16:47:59 87° ENE 16:53:49 10° NNW
Landsat 5 4.4 16:48:37 27° ESE 16:48:37 27° ESE 16:51:27 10° SSE
Cosmos 2333 Rocket 3.6 16:44:35 10° N 16:48:49 20° NE 16:49:04 20° NE
Cosmos 2278 3.9 16:43:55 10° NNW 16:49:39 78° WSW 16:55:19 10° SSE
Cosmos 1634 Rocket 4.1 16:43:25 10° SSW 16:49:45 81° W 16:56:08 10° N
Cosmos 2026 Rocket 4.5 16:43:46 10° NNW 16:49:49 62° W 16:55:46 10° S
GEOS 3 Rocket 4.1 16:49:28 28° E 16:51:39 41° NE 16:56:29 10° NNW
Cosmos 2208 Rocket 4.2 16:48:58 10° S 16:54:12 53° ESE 16:57:09 25° NE
Cosmos 1933 Rocket 4.3 16:50:15 10° N 16:53:15 31° NE 16:53:15 31° NE
Cosmos 44 Rocket 3.2 16:49:45 10° NW 16:54:44 86° NE 16:59:25 11° SE
Cosmos 2150 Rocket 4.0 16:51:12 10° NNW 16:56:18 58° ENE 17:01:28 10° SE
Cosmos 1833 Rocket 3.5 16:50:55 10° SW 16:56:20 48° NW 17:01:21 12° NNE
Cosmos 1666 Rocket 3.7 16:52:18 10° NNW 16:56:46 75° W 17:01:09 10° S
MOS 1-B Rocket 4.0 16:51:27 10° NNE 16:57:23 72° ESE 17:04:08 10° S
Cosmos 841 Rocket 3.7 16:52:16 10° SSW 16:57:25 70° WNW 17:01:45 15° NNE
Okean O Rocket 1.5 16:53:30 10° SSE 16:57:55 64° ENE 17:02:21 10° N
Cosmos 1470 Rocket 3.5 16:55:45 10° N 17:00:12 61° ENE 17:04:37 10° SSE
Cosmos 1328 Rocket 3.5 16:56:24 10° S 17:00:48 65° E 17:03:23 24° NNE
H-2A R/B 2.2 16:56:24 10° S 17:01:32 74° WSW 17:06:34 10° NNW
USA 306 2.9 16:58:26 10° WNW 17:02:40 64° NNE 17:03:36 48° ENE
Cosmos 2219 Rocket 3.6 17:01:15 10° N 17:04:47 20° NNE 17:04:47 20° NNE
COSMOS 2406 3.9 16:59:52 10° SW 17:05:28 52° NW 17:10:10 15° NNE
NOSS 3-4 (A) 4.5 16:59:39 10° NW 17:05:32 33° NNE 17:07:33 29° NE
NOSS 3-4 (C) 4.5 16:59:45 10° NW 17:05:37 33° NNE 17:07:38 29° NE
ISS -1.4 17:02:56 10° W 17:05:38 22° SW 17:08:19 10° SSE
CZ-2C R/B 2.5 17:02:59 16° NNE 17:07:05 65° ESE 17:12:12 10° S
ATLAS 2AS CENTAUR R/B 3.9 17:01:31 10° NW 17:07:59 29° N 17:10:37 23° NE
Meteor 2-8 Rocket 4.3 17:02:22 10° S 17:08:28 72° E 17:14:38 10° NNE
Cosmos 1125 Rocket 3.4 17:03:22 10° NNW 17:08:36 67° ENE 17:13:51 10° SSE
USA 234 3.9 17:05:41 10° SE 17:12:05 55° SW 17:18:29 10° WNW
SKYMED 2 3.4 17:11:18 36° NNE 17:13:01 73° ESE 17:17:21 10° S
Meteor 1-27 Rocket 4.2 17:09:55 10° SSE 17:14:11 36° ESE 17:14:11 36° ESE
Cosmos 1782 4.5 17:13:54 10° SW 17:17:31 33° WNW 17:21:09 10° N
Cosmos 1900 4.2 17:12:57 10° SSW 17:17:48 72° SE 17:18:52 53° ENE
Cosmos 1655 Rocket 3.9 17:12:08 10° N 17:18:35 78° E 17:24:57 10° SSE
Spot 2 4.5 17:15:59 22° SE 17:19:14 56° ENE 17:24:13 10° N
CZ-4B R/B 3.4 17:15:09 10° S 17:20:31 69° WSW 17:25:52 10° NNW
USA 307 2.8 17:18:03 10° WNW 17:22:18 71° NNE 17:22:25 71° NE
Cosmos 2180 Rocket 4.5 17:17:02 10° S 17:23:22 89° W 17:29:41 10° N
Meteor 2-6 Rocket 4.2 17:17:52 10° S 17:23:37 88° WNW 17:28:31 14° NNE
SJ-11-01 4.5 17:20:07 10° S 17:24:51 73° WSW 17:29:37 10° NNW
ATLAS 5 CENTAUR R/B 1.7 17:19:35 10° NW 17:26:18 86° SW 17:26:27 81° SSE
deb Chang Zheng 4 4.3 17:26:28 10° S 17:30:41 54° WSW 17:34:57 10° NNW
Cosmos 2237 4.1 17:28:26 10° NNW 17:34:09 66° ENE 17:34:57 58° E
Cosmos 2360 Rocket 2.3 17:32:14 10° NNW 17:37:21 52° NE 17:37:21 52° NE
Lacrosse 5 rocket 2.2 17:34:55 10° WNW 17:38:42 45° SW 17:39:13 42° SSW
ATLAS CENTAUR R/B 4.0 17:39:15 10° NNW 17:41:01 13° N 17:41:01 13° N
USA 308 3.3 17:40:39 10° WNW 17:44:08 59° WNW 17:44:08 59° WNW
Cosmos 1515 Rocket 3.8 17:41:00 10° SSW 17:44:48 64° SSW 17:44:48 64° SSW
Meteor 1-11 Rocket 3.9 17:46:36 10° NNW 17:52:12 70° W 17:57:54 10° S
Meteor 1-10 Rocket 4.4 17:47:25 10° SSW 17:53:10 72° WNW 17:56:15 28° N
COSMOS 2455 3.8 17:48:31 10° WSW 17:54:11 41° NW 17:56:40 29° N
COSMOS 2428 4.3 17:49:31 10° NNW 17:52:06 22° N 17:52:06 22° N
CZ-4 R/B 4.1 17:59:19 10° NNW 17:59:19 10° NNW 17:59:21 10° NNW
Cosmos 921 Rocket 3.9 17:54:35 10° SW 17:57:55 47° WSW 17:57:55 47° WSW
Cosmos 2322 Rocket 2.3 17:53:23 10° NNW 17:59:06 75° WSW 18:00:15 57° S
COSMO-SKYMED 1 3.8 17:59:54 33° NNW 18:01:00 39° WNW 18:05:02 10° SW
CZ-4C R/B 4.4 17:58:05 10° NW 18:04:37 35° WSW 18:12:00 10° S
USA 305 4.4 18:06:06 10° WNW 18:08:39 34° W 18:08:39 34° W
SL-16 R/B 3.2 18:12:43 10° NW 18:18:03 43° WSW 18:21:04 23° SSW
USA 267 3.5 18:19:25 55° N 18:19:59 56° NNW 18:26:20 10° W
Cosmos 2237 Rocket 4.4 18:17:07 10° N 18:18:00 13° N 18:18:00 13° N
Cosmos 2082 Rocket 3.9 18:18:16 10° WSW 18:23:04 27° NW 18:24:53 23° NNW
GEOS 3 Rocket 4.4 18:30:36 48° W 18:30:36 48° W 18:34:43 10° NW
Cosmos 2333 Rocket 3.7 18:28:20 10° NNW 18:31:06 29° NNW 18:31:06 29° NNW
Okean O Rocket 4.4 18:31:46 10° SW 18:34:41 17° W 18:37:37 10° NW
Cosmos 2219 Rocket 4.1 18:44:38 10° NNW 18:46:30 21° NNW 18:46:30 21° NNW
NOSS 3-4 (A) 4.5 18:50:33 10° NW 18:55:00 45° NW 18:55:00 45° NW
NOSS 3-4 (C) 4.5 18:50:39 10° NW 18:55:05 45° NNW 18:55:05 45° NNW
ATLAS 2AS CENTAUR R/B 3.9 18:53:32 10° NW 18:58:02 35° NNW 18:58:02 35° NNW
Cosmos 2360 Rocket 4.3 19:16:41 10° NW 19:19:09 22° WNW 19:19:09 22° WNW
